Waarnemingen

Advertentie
Mijn weer
Valley, Groot Brittannië (3302): temperatuur & dauwpunt: 10.12.2017 01:00:00 - 16.12.2017 01:00:00 (GMT)Valley, Groot Brittannië (3302): temperatuur -20cm & temperatuur -100cm: 10.12.2017 01:00:00 - 16.12.2017 01:00:00 (GMT)Valley, Groot Brittannië (3302): windsnelheid & windstoten: 10.12.2017 01:00:00 - 16.12.2017 01:00:00 (GMT)Valley, Groot Brittannië (3302): windrichting: 10.12.2017 01:00:00 - 16.12.2017 01:00:00 (GMT)Valley, Groot Brittannië (3302): luchtdruk: 10.12.2017 01:00:00 - 16.12.2017 01:00:00 (GMT)Valley, Groot Brittannië (3302): zicht: 10.12.2017 01:00:00 - 16.12.2017 01:00:00 (GMT)Valley, Groot Brittannië (3302): Zonneschijnduur: 10.12.2017 01:00:00 - 16.12.2017 01:00:00 (GMT)Valley, Groot Brittannië (3302): neerslag: 10.12.2017 01:00:00 - 16.12.2017 01:00:00 (GMT)
Datum & Tijd tt [°C] td [°C] tt -20cm [°C] tt -100cm [°C] ff [km/u] ff [kn] fx [km/u] fx [kn] dd ppp [hPa] vv [km] sd [min] rr [mm]
16.12.2017 01:00:00 5,8 1,4 - - 22 12 - - NNW 1015,7 30 0 -
16.12.2017 00:00:00 6,0 1,4 - - 28 15 - - NNW 1015,1 26 - 0,2
15.12.2017 23:00:00 5,0 2,2 - - 26 14 - - NW 1014,7 4,2 0 0,2
15.12.2017 22:00:00 6,1 1,4 - - 34 18 48 26 NW 1014,1 16 0 0,0
15.12.2017 21:00:00 6,3 2,3 - - 24 13 - - NNW 1013,6 45 0 0,0
15.12.2017 20:00:00 5,7 2,0 - - 29 16 - - NW 1013,1 40 0 0,0
15.12.2017 19:00:00 4,4 -0,3 - - 11 6 - - N 1012,3 30 0 0,0
15.12.2017 18:00:00 4,5 -0,5 - - 15 8 - - N 1011,5 45 0 0,0
15.12.2017 17:00:00 5,4 -0,7 - - 21 11 - - N 1010,6 10 0 0,0
15.12.2017 16:00:00 6,1 -0,8 - - 22 12 46 25 N 1009,9 10 6 0,0
15.12.2017 15:00:00 7,1 0,0 - - 29 16 - - N 1008,5 40 54 0,0
15.12.2017 14:00:00 7,4 0,6 - - 31 17 - - N 1007,7 10 54 0,0
15.12.2017 13:00:00 7,3 1,0 - - 31 17 48 26 N 1006,7 10 24 0,0
15.12.2017 12:00:00 7,0 1,0 - - 29 16 52 28 N 1005,7 10 0 0,0
15.12.2017 11:00:00 6,9 1,8 - - 35 19 55 30 N 1004,6 10 0 0,0
15.12.2017 10:00:00 7,0 2,4 - - 35 19 50 27 N 1002,9 10 0 0,0
15.12.2017 09:00:00 6,9 2,3 6,7 9,0 22 12 - - N 1001,3 10 0 0,0
15.12.2017 08:00:00 4,5 1,1 - - 11 6 - - N 1000,3 10 0 0,0
15.12.2017 07:00:00 3,3 0,6 - - 13 7 - - N 999,7 10 0 0,0
15.12.2017 06:00:00 4,5 1,0 - - 18 10 - - N 998,3 45 0 0,0
15.12.2017 05:00:00 4,7 2,0 - - 21 11 - - N 996,7 40 0 0,0
15.12.2017 04:00:00 5,0 1,6 - - 34 18 52 28 N 994,7 40 0 0,0
15.12.2017 03:00:00 5,5 3,3 - - 39 21 61 33 N 992,3 40 0 0,0
15.12.2017 02:00:00 6,4 3,5 - - 46 25 70 38 NW 989,9 27 0 1,4
15.12.2017 01:00:00 7,6 3,5 - - 42 23 67 36 WNW 988,9 23 0 0,0
15.12.2017 00:00:00 7,1 3,7 - - 39 21 57 31 WNW 989,1 18 - 0,0
14.12.2017 23:00:00 7,0 3,4 - - 35 19 63 34 WNW 989,0 22 0 0,0
14.12.2017 22:00:00 6,9 2,8 - - 41 22 61 33 WNW 989,0 25 0 0,0
14.12.2017 21:00:00 6,8 2,2 - - 37 20 63 34 WNW 988,8 30 0 0,0
14.12.2017 20:00:00 6,7 3,2 - - 34 18 50 27 WNW 988,6 25 0 0,0
14.12.2017 19:00:00 6,4 1,7 - - 28 15 - - WNW 988,1 10 0 0,0
14.12.2017 18:00:00 6,2 1,2 - - 29 16 48 26 NW 986,9 10 0 0,0
14.12.2017 17:00:00 6,1 2,6 - - 28 15 46 25 NW 986,0 10 0 0,0
14.12.2017 16:00:00 5,8 4,4 - - 35 19 54 29 W 985,0 10 0 0,8
14.12.2017 15:00:00 6,6 2,6 - - 35 19 52 28 W 984,8 35 0 0,0
14.12.2017 14:00:00 6,6 2,4 - - 39 21 55 30 WZW 985,1 10 6 0,0
14.12.2017 13:00:00 6,7 2,5 - - 44 24 59 32 ZW 986,0 10 0 0,0
14.12.2017 12:00:00 6,7 2,5 - - 42 23 55 30 ZW 986,4 10 30 0,0
14.12.2017 11:00:00 6,3 2,0 - - 41 22 55 30 ZW 987,2 10 24 0,0
14.12.2017 10:00:00 5,9 1,7 - - 41 22 54 29 ZW 988,0 10 0 0,0
14.12.2017 09:00:00 5,8 1,7 6,7 9,0 41 22 55 30 ZW 988,6 10 0 0,0
14.12.2017 08:00:00 6,0 1,8 - - 37 20 55 30 WZW 988,6 10 0 0,0
14.12.2017 07:00:00 5,7 0,2 - - 37 20 54 29 WZW 988,7 10 0 0,0
14.12.2017 06:00:00 6,0 0,5 - - 41 22 61 33 W 989,0 35 0 0,0
14.12.2017 05:00:00 5,7 1,0 - - 42 23 61 33 W 989,5 23 0 0,0
14.12.2017 04:00:00 6,1 0,6 - - 48 26 70 38 W 989,6 21 0 0,0
14.12.2017 03:00:00 6,0 0,8 - - 48 26 72 39 W 989,8 22 0 0,0
14.12.2017 02:00:00 5,7 1,6 - - 54 29 74 40 W 989,8 26 0 0,0
14.12.2017 01:00:00 6,0 1,3 - - 54 29 78 42 W 989,7 24 0 0,0
14.12.2017 00:00:00 5,8 1,7 - - 52 28 76 41 W 989,7 30 - 0,0
13.12.2017 23:00:00 5,3 1,9 - - 55 30 76 41 W 989,5 11 0 0,0
13.12.2017 22:00:00 5,2 1,2 - - 52 28 74 40 W 989,7 35 0 0,0
13.12.2017 21:00:00 5,0 0,3 - - 48 26 68 37 W 989,6 26 0 0,0
13.12.2017 20:00:00 4,8 0,7 - - 46 25 72 39 WNW 989,0 10 0 0,0
13.12.2017 19:00:00 4,9 1,6 - - 48 26 67 36 W 988,4 10 0 0,2
13.12.2017 18:00:00 2,6 1,8 - - 44 24 59 32 W 988,4 3,0 0 2,4
13.12.2017 17:00:00 5,5 1,2 - - 37 20 57 31 W 988,8 10 0 0,0
13.12.2017 16:00:00 6,3 0,6 - - 34 18 50 27 W 989,5 10 0 0,0
13.12.2017 15:00:00 6,0 -0,1 - - - - 61 33 - 990,5 35 24 0,0
13.12.2017 14:00:00 6,8 1,0 - - 44 24 63 34 W 990,9 10 42 0,0
13.12.2017 13:00:00 6,9 2,1 - - 42 23 68 37 W 991,1 30 6 0,4
13.12.2017 12:00:00 6,8 4,2 - - 37 20 61 33 W 991,6 28 0 0,0
13.12.2017 11:00:00 7,8 5,2 - - 44 24 70 38 W 991,5 10 0 1,0
13.12.2017 10:00:00 8,3 5,9 - - 52 28 68 37 ZW 992,1 10 0 0,6
13.12.2017 09:00:00 8,5 5,8 6,5 9,2 44 24 63 34 ZW 993,5 20 0 0,4
13.12.2017 08:00:00 8,6 5,0 - - 46 25 63 34 ZW 994,7 10 0 0,0
13.12.2017 07:00:00 8,6 5,4 - - 41 22 54 29 ZW 996,1 10 0 0,0
13.12.2017 06:00:00 8,3 5,6 - - 41 22 52 28 ZW 997,0 14 0 0,0
13.12.2017 05:00:00 8,1 5,3 - - 35 19 54 29 ZW 998,2 11 0 0,0
13.12.2017 04:00:00 8,1 5,7 - - 37 20 50 27 WZW 998,9 13 0 0,0
13.12.2017 03:00:00 8,2 5,2 - - 29 16 - - WZW 999,8 12 0 0,0
13.12.2017 02:00:00 8,2 5,4 - - 29 16 - - WZW 1000,1 11 0 0,0
13.12.2017 01:00:00 8,3 3,9 - - 28 15 - - W 1000,6 19 0 0,0
13.12.2017 00:00:00 8,1 4,9 - - 28 15 - - W 1000,9 14 - 0,0
12.12.2017 23:00:00 7,8 4,8 - - 22 12 - - W 1000,7 14 0 0,0
12.12.2017 22:00:00 7,6 4,5 - - 26 14 - - W 1000,7 15 0 0,0
12.12.2017 21:00:00 7,7 5,4 - - 24 13 46 25 W 1000,7 16 0 0,0
12.12.2017 20:00:00 8,6 5,8 - - 35 19 70 38 WZW 1000,7 10 0 0,8
12.12.2017 19:00:00 8,2 7,9 - - 50 27 68 37 ZW 1000,8 3,0 0 2,2
12.12.2017 18:00:00 7,2 6,8 - - 48 26 67 36 ZZW 1001,5 4,5 0 2,4
12.12.2017 17:00:00 7,0 5,8 - - 50 27 63 34 ZZW 1002,1 5 0 1,0
12.12.2017 16:00:00 7,2 3,2 - - 44 24 63 34 ZZW 1002,9 30 0 0,0
12.12.2017 15:00:00 7,4 1,6 - - 31 17 54 29 ZZW 1003,1 10 0 0,0
12.12.2017 14:00:00 7,6 3,0 - - 37 20 - - ZZW 1004,2 35 0 0,0
12.12.2017 13:00:00 7,3 2,7 - - 31 17 - - ZW 1005,3 10 0 -
12.12.2017 12:00:00 7,2 2,4 - - 28 15 - - ZZW 1005,8 10 0 0,0
12.12.2017 11:00:00 6,2 3,7 - - 26 14 - - Z 1005,9 10 0 0,0
12.12.2017 10:00:00 4,6 1,8 - - 15 8 - - ZW 1006,1 10 0 0,0
12.12.2017 09:00:00 2,9 1,8 5,2 9,4 8 4 - - WZW 1006,0 10 0 0,0
12.12.2017 08:00:00 2,8 1,3 - - 4 2 - - WNW 1006,1 10 0 0,0
12.12.2017 07:00:00 2,8 1,5 - - 4 2 - - ZZO 1005,8 10 0 0,0
12.12.2017 06:00:00 1,5 -0,6 - - 9 5 - - ZZO 1005,2 40 0 0,0
12.12.2017 05:00:00 0,6 -1,6 - - 5 3 - - ZO 1004,6 50 0 0,0
12.12.2017 04:00:00 1,2 -0,7 - - 4 2 - - ZZO 1004,4 50 0 0,0
12.12.2017 03:00:00 0,4 -0,9 - - 4 2 - - OZO 1004,1 50 0 0,0
12.12.2017 02:00:00 0,9 -1,5 - - 5 3 - - NO 1003,3 50 0 0,0
12.12.2017 01:00:00 0,6 -1,3 - - 5 3 - - NNO 1002,6 50 0 0,0
12.12.2017 00:00:00 0,7 -1,9 - - 5 3 - - N 1001,4 50 - 0,0
11.12.2017 23:00:00 2,0 -0,7 - - 13 7 - - N 1000,5 50 0 0,0
11.12.2017 22:00:00 1,4 -0,4 - - 9 5 - - N 999,7 50 0 0,0
11.12.2017 21:00:00 1,7 0,0 - - 5 3 - - N 999,1 50 0 0,0
11.12.2017 20:00:00 2,7 0,8 - - 8 4 - - NNW 998,2 10 0 0,0
11.12.2017 19:00:00 2,0 0,0 - - 11 6 - - NNO 996,6 10 0 0,0
11.12.2017 18:00:00 2,6 0,4 - - 15 8 - - N 995,2 10 0 0,0
11.12.2017 17:00:00 3,5 0,9 - - 15 8 - - N 994,3 10 0 0,0
11.12.2017 16:00:00 2,3 1,8 - - 8 4 - - NNW 993,3 10 0 0,0
11.12.2017 15:00:00 3,2 1,7 - - 2 1 - - NNO 992,5 10 30 0,0
11.12.2017 14:00:00 3,2 2,3 - - 4 2 - - NNO 991,9 10 6 1,0
11.12.2017 13:00:00 4,5 0,8 - - 9 5 - - ONO 991,5 10 12 0,0
11.12.2017 12:00:00 5,2 0,2 - - 2 1 - - NO 991,0 10 54 0,0
11.12.2017 11:00:00 3,9 -0,1 - - 2 1 - - NO 990,8 10 54 0,0
11.12.2017 10:00:00 -0,2 -1,8 - - 4 2 - - N 990,3 10 24 0,0
11.12.2017 09:00:00 -0,5 -3,9 6,2 9,7 8 4 - - NO 989,4 10 0 0,0
11.12.2017 08:00:00 -0,7 -4,9 - - 9 5 - - NNO 988,4 10 0 0,0
11.12.2017 07:00:00 -1,1 -4,5 - - 8 4 - - N 987,3 10 0 0,0
11.12.2017 06:00:00 -0,7 -2,5 - - 9 5 - - N 986,4 10 0 0,0
11.12.2017 05:00:00 -0,5 -2,8 - - 15 8 - - N 986,1 50 0 0,0
11.12.2017 04:00:00 0,3 -2,7 - - 13 7 - - NNO 986,0 50 0 0,0
11.12.2017 03:00:00 -1,3 -3,8 - - 13 7 - - N 986,0 50 0 0,0
11.12.2017 02:00:00 0,1 -2,9 - - 11 6 - - NNO 985,5 10 0 0,0
11.12.2017 01:00:00 -0,3 -2,1 - - 8 4 - - NO 984,9 10 0 0,0
11.12.2017 00:00:00 0,5 -1,5 - - 8 4 - - NO 984,4 40 - 0,0
10.12.2017 23:00:00 0,5 -1,3 - - 9 5 - - NO 983,8 35 0 0,0
10.12.2017 22:00:00 0,4 -1,2 - - 9 5 - - ONO 983,4 10 0 0,0
10.12.2017 21:00:00 0,7 -0,8 - - 11 6 - - NO 982,6 10 0 0,0
10.12.2017 20:00:00 0,7 -0,9 - - 13 7 - - ONO 981,9 30 0 0,0
10.12.2017 19:00:00 1,6 -0,4 - - 11 6 - - ONO 981,5 24 0 0,0
10.12.2017 18:00:00 1,6 -0,4 - - 13 7 - - ONO 980,8 16 0 0,0
10.12.2017 17:00:00 1,5 -0,4 - - 11 6 - - NO 980,3 17 0 0,0
10.12.2017 16:00:00 1,7 0,1 - - 9 5 - - ONO 980,1 15 0 0,0
10.12.2017 15:00:00 2,0 0,2 - - 11 6 - - O 979,8 15 0 0,0
10.12.2017 14:00:00 2,0 0,0 - - 11 6 - - NO 979,7 10 0 0,0
10.12.2017 13:00:00 1,7 -0,5 - - 15 8 - - ONO 979,5 35 0 0,0
10.12.2017 12:00:00 1,6 0,1 - - 16 9 - - ONO 979,5 35 0 0,0
10.12.2017 11:00:00 1,1 -0,5 - - 22 12 - - ONO 979,7 30 0 0,0
10.12.2017 10:00:00 0,8 -0,3 - - 29 16 50 27 ONO 979,6 8 0 0,0
10.12.2017 09:00:00 0,9 -0,2 7,0 9,9 35 19 50 27 ONO 979,7 10 0 0,2
10.12.2017 08:00:00 1,3 0,0 - - 29 16 48 26 ONO 980,1 15 0 0,0
10.12.2017 07:00:00 1,7 0,5 - - 21 11 - - ONO 981,0 30 0 0,8
10.12.2017 06:00:00 2,5 -0,1 - - 16 9 - - ONO 983,0 22 0 0,2
10.12.2017 05:00:00 2,8 -1,9 - - 8 4 - - ONO 984,5 50 0 0,0
10.12.2017 04:00:00 2,9 -3,0 - - 15 8 - - O 987,5 50 0 0,0
10.12.2017 03:00:00 2,5 -2,1 - - 11 6 - - ONO 991,0 10 0 0,0
10.12.2017 02:00:00 2,1 -2,1 - - 15 8 - - O 993,7 50 0 0,0
10.12.2017 01:00:00 2,2 -2,2 - - 13 7 - - OZO 996,0 10 0 0,0

tt = temperatuur
td = dauwpunt
tt -20cm = temperatuur -20cm
tt -100cm = temperatuur -100cm
ff = windsnelheid
fx = windstoten
dd = windrichting
ppp = luchtdruk
vv = zicht
sd = Zonneschijnduur
rr = neerslag

Weerstations in de omgeving